Miscellaneous Local Product
Issued by NWS Hastings, NE

Home | Current Version | Previous Version | Text Only | Print | Product List | Glossary On
Versions: 1 2 3 4 5 6 7 8 9 10 11 12 13 14 15 16 17 18 19 20 21 22 23 24 25 26 27 28 29 30 31 32 33 34 35 36 37 38 39 40 41 42 43 44 45 46 47 48 49 50
000
AXUS43 KGID 300502
MISGRI

GID CWA HOURLY WEATHER ROUNDUP
NATIONAL WEATHER SERVICE HASTINGS NE
1200 AM CDT TUE MAY 30 2017

NOTE: "FAIR" INDICATES FEW OR NO CLOUDS BELOW 12,000 FEET WITH NO
SIGNIFICANT WEATHER AND/OR OBSTRUCTIONS TO VISIBILITY.

...SOUTH CENTRAL NEBRASKA...

CITY           SKY/WX    TMP DP  RH WIND       PRES   REMARKS
GRAND ISLAND   CLEAR     53  43  68 CALM      30.08S
HASTINGS       CLEAR     57  42  57 CALM      30.09S
KEARNEY        CLEAR     57  37  47 CALM      30.10S
ORD            CLEAR     47  39  74 CALM      30.07S
YORK           CLEAR     55  39  54 CALM      30.07S
AURORA         CLEAR     54  39  57 CALM      30.08R
LEXINGTON      CLEAR     53  43  70 CALM      30.11S
HOLDREGE       CLEAR     55  39  56 CALM      30.10S
HEBRON         CLEAR     55  45  68 CALM      30.08S

...NEBRASKA PANHANDLE...

CITY           SKY/WX    TMP DP  RH WIND       PRES   REMARKS
CHADRON        CLEAR     45  41  86 W6        30.15R
ALLIANCE       CLEAR     48  37  65 N3        30.15R
SCOTTSBLUFF    CLEAR     51  37  58 N3        30.17S
SIDNEY         CLEAR     45  37  73 NW7       30.20R

...WESTERN AND NORTH CENTRAL NEBRASKA...

CITY           SKY/WX    TMP DP  RH WIND       PRES   REMARKS
VALENTINE      CLEAR     50  38  63 W8        30.09S
AINSWORTH      CLEAR     50  38  64 W6        30.09S
ONEILL         CLEAR     53  38  57 W5        30.06S
BROKEN BOW     CLEAR     47  38  71 CALM      30.10R
IMPERIAL       MOCLDY    56  41  57 SW10      30.15R
NORTH PLATTE   CLEAR     46  40  79 CALM      30.12S
MCCOOK         PTCLDY    56  42  59 CALM      30.12R

...EASTERN NEBRASKA...

CITY           SKY/WX    TMP DP  RH WIND       PRES   REMARKS
NORFOLK        CLEAR     45  42  89 SW5       30.04R
SO SIOUX CITY  PTCLDY    53  42  66 MISG      30.02S
TEKAMAH        MOCLDY    53  41  63 W3        30.02F
ALBION         CLEAR     48  39  71 CALM      30.06S
OMAHA EPPLEY   CLEAR     58  45  62 CALM      30.03S
OFFUTT AFB     CLEAR     55  45  69 CALM      30.03S
MILLARD        CLEAR     56  48  72 CALM      30.04R
LINCOLN        CLEAR     57  42  57 CALM      30.06S
NEBRASKA CITY  CLEAR     63  35  35 N5        30.05R
BEATRICE       CLEAR     56  43  60 CALM      30.06S
FALLS CITY     NOT AVBL

...NORTHERN KANSAS...

CITY           SKY/WX    TMP DP  RH WIND       PRES   REMARKS
GOODLAND       CLOUDY    52  47  83 SW8       30.17R
HILL CITY      PTCLDY    55  51  86 SW3       30.11R
NORTON         CLEAR     54  41  62 CALM      30.10S
PHILLIPSBURG   CLEAR     55  48  76 CALM      30.10R
SMITH CENTER   CLEAR     57  43  58 E8        30.10R
HAYS           MOCLDY    61  51  70 CALM      30.10R
RUSSELL        CLEAR     62  50  64 S5        30.08R
CONCORDIA      CLEAR     59  44  57 CALM      30.07S
SALINA         CLEAR     63  51  65 CALM      30.07S
TOPEKA         CLEAR     63  49  60 SE3       30.05R



USA.gov is the U.S. government's official web portal to all federal, state and local government web resources and services.